STARLINK-30249 (57618 NORAD) Tracking and Keplerian Element Data

This shows tracking and keplerian element data for the satellite.

Feedback or suggestion? Click here.




ElementValue
Catalog57618
NameSTARLINK-30249
Epoch Orbit369
Epoch Day238.91667824
Epoch Year2023
RAAN79.2618
Inclination43.0009
Eccentricity0.0002205
Argument of Perigee250.6995
Mean Anonmoly23.937
Mean Motion15.74802055
Decay Rate-0.00737261
L11 57618U 23119S 23238.91667824 -.00737261 00000+0 -52838-2 0 9999
L22 57618 43.0009 79.2618 0002205 250.6995 23.9370 15.74802055 3692



Live tracking and technical data element details for STARLINK-30249 (NORAD 57618). STARLINK-30249 can be tracked NOW for your location showing map with azimuth and elevation plus other details from your city location.







IsCatalogInMostPopularTable: catalog: 57618, numindb: 5
Update: records affected: 1



GetName: 57618 STARLINK-30249

Hit Count: updated at: Tue, 26 Sep 2023 11:48:08 GMT